Location: Carrigahorig
(53.0625°N, 8.1439°W)
Time: 23:10:26
(UTC+00:00)

NOSS 3 (A) - Pass Details

Date: 15 May 2026
Orbit: 160 x 953 km, 63.3° (Epoch: 23 April)

Event Time Altitude Azimuth Distance (km) Brightness Sun altitude
Rises 21:22:58 0° 312° (NW) 1,715 10.4 -7.5°
Reaches altitude 10° 21:24:34 10° 311° (NW) 1,007 8.4 -7.7°
Maximum altitude 21:26:43 79° 226° (SW) 293 3.9 -7.9°
Enters shadow 21:29:11 12° 138° (SE) 1,155 6.3 -8.1°
